Dewpoint
30 24 22 19 21 15 13 12 6 11 17 13 12 18 23 30 33 36 37 40 43 46 48 51 53 53 53 57 59 61 61 61 60 58 57 56 52 51 49 47 47 47 46 45
25 22 21 17 16 13 11 10 14 15 19 22 15 17 23 28 31 34 36 38 41 44 48 51 54 55 56 57 59 60 59 60 58 55 53 52 51 48 46 46 47 45 45 44
24 24 26 20 16 14 15 13 19 17 21 22 19 20 28 31 33 37 39 39 41 43 48 51 54 56 57 58 58 58 57 57 54 53 51 50 49 47 44 44 43 44 45 44
33 28 23 17 18 18 18 23 19 21 22 16 20 13 23 31 33 36 39 41 43 44 48 51 54 56 57 58 58 55 54 52 52 49 46 46 44 44 45 44 44 44 44 44
23 24 21 19 23 25 29 26 25 22 21 22 20 15 32 32 30 33 37 40 42 46 49 51 53 53 53 53 52 52 50 46 46 47 48 46 46 44 43 43 40 39 37 34
35 28 26 26 27 26 27 27 26 24 19 21 15 17 22 28 28 33 39 42 46 49 49 46 47 48 48 49 49 48 45 44 46 46 47 46 43 40 37 35 31 29 28 28
25 23 27 28 26 28 24 24 22 21 23 22 20 19 18 16 30 31 39 43 47 47 44 42 42 42 44 46 47 46 44 44 45 43 40 40 39 34 32 29 27 28 27 27
20 23 24 27 27 22 25 22 23 15 18 18 23 15 14 28 26 31 39 43 46 44 41 40 40 41 43 45 45 44 43 42 40 39 36 33 32 32 29 29 30 28 28 28
20 21 25 26 27 24 23 24 26 25 28 25 14 11 22 30 30 33 38 41 43 41 39 39 40 42 44 45 45 45 42 38 35 35 37 35 35 31 32 32 32 29 30 26
23 22 24 28 28 29 28 26 24 22 19 17 10 12 11 27 28 33 37 40 41 40 39 40 41 44 44 44 46 45 40 35 36 36 35 35 34 31 33 33 31 30 30 30
23 23 28 29 27 21 27 24 24 24 28 22 15 13 21 18 27 31 35 39 40 40 40 41 42 43 43 44 43 40 35 36 36 33 34 37 31 31 32 32 31 30 31 30
27 25 29 25 29 29 28 26 26 28 22 26 30 17 22 26 28 32 34 37 39 40 40 41 42 42 42 43 40 36 36 37 33 32 30 31 31 29 30 31 30 30 30 30
33 26 27 25 28 29 25 24 25 24 31 23 29 19 23 26 26 28 31 35 38 40 40 41 42 42 42 42 38 35 37 35 32 30 28 28 29 29 30 30 30 30 29 29
37 29 27 26 25 25 28 24 24 26 28 26 24 16 17 21 22 23 29 32 36 38 40 42 42 41 41 41 37 35 36 37 35 30 24 26 28 30 31 31 30 31 30 30
36 31 29 26 27 25 23 21 23 22 23 26 21 13 11 14 17 21 24 30 32 37 40 41 42 40 40 39 36 34 36 39 34 28 25 27 28 30 31 30 30 30 31 29
35 33 33 32 28 27 24 22 19 19 20 18 17 17 18 21 20 24 25 30 32 35 39 40 40 39 38 36 34 32 38 36 33 28 28 28 28 29 30 29 30 30 29 28
37 39 32 23 26 27 31 30 24 19 20 22 24 22 20 24 25 26 26 30 33 35 38 39 39 39 38 35 33 32 36 33 30 28 26 26 27 28 27 26 24 26 28 30
39 36 34 30 31 28 15 21 18 21 19 18 18 19 19 22 29 31 31 31 34 36 37 39 39 39 39 37 32 36 31 30 28 26 26 26 26 22 22 23 24 26 29 29
32 35 33 37 23 20 17 15 19 21 19 20 22 20 20 27 34 32 33 34 33 35 37 39 39 39 39 35 33 31 30 26 27 26 24 21 21 22 23 23 25 27 28 29
31 37 34 31 34 31 27 24 30 28 22 24 24 25 25 30 34 26 33 33 34 36 37 38 39 39 37 34 31 27 29 30 24 22 20 21 21 21 22 24 26 28 29 27
36 38 37 33 36 30 23 24 31 23 30 32 32 30 32 31 32 39 38 34 36 36 37 39 39 36 34 27 28 28 26 26 20 22 21 21 22 23 25 27 27 29 28 29
33 35 37 36 36 30 24 29 28 37 34 32 34 34 37 39 38 38 39 37 37 37 38 37 34 30 27 26 32 33 28 20 22 24 24 24 24 25 26 28 29 29 29 30
32 34 36 30 32 31 29 29 30 34 35 35 35 34 36 37 36 36 37 38 37 37 33 30 27 26 32 35 32 22 21 26 26 27 26 26 27 27 27 28 28 29 28 29
33 33 34 32 25 26 28 30 31 32 34 35 35 37 38 38 39 39 39 37 35 29 24 25 32 35 33 29 21 23 27 29 27 26 26 27 28 26 27 26 26 28 30 30
35 33 31 32 30 28 29 32 35 37 39 39 39 40 42 42 41 40 39 33 28 27 33 34 31 27 24 25 27 28 28 28 26 27 28 28 31 30 28 26 27 29 30 30
34 30 37 36 36 38 35 38 42 41 41 41 41 41 38 39 40 36 28 27 34 34 29 27 29 27 26 28 28 28 29 30 30 30 30 32 31 30 28 26 27 30 31 31
Lifted_Index
-0 0 0 0 0 0 -0 -0 -0 0 0 0 -0 -0 -0 -1 -2 -3 -3 -4 -4 -4 -4 -4 -4 -4 -4 -5 -5 -5 -4 -3 -2 -2 -1 -0 1 2 3 4 4 4 4 4
0 0 0 0 0 0 -0 -0 -0 0 0 0 -0 -0 -1 -1 -2 -3 -3 -3 -4 -4 -4 -4 -4 -5 -5 -5 -5 -4 -3 -3 -2 -1 -1 0 2 3 4 4 5 5 5 5
-0 -0 -0 0 0 0 -0 -0 -0 -0 -0 -0 -0 -0 -1 -1 -2 -2 -3 -3 -3 -4 -4 -5 -5 -5 -5 -5 -4 -4 -3 -2 -1 -0 1 2 3 3 4 5 5 5 5 5
-1 -1 -0 -0 -0 -0 -0 -1 -1 -1 -1 -0 -0 -0 -1 -1 -1 -2 -2 -3 -3 -4 -4 -5 -5 -5 -5 -4 -3 -2 -1 0 1 2 3 3 3 4 5 5 6 6 6 6
-1 -1 -1 -1 -1 -1 -1 -1 -1 -1 -1 -0 -0 -0 -1 -1 -1 -1 -2 -2 -3 -3 -4 -4 -4 -3 -3 -1 -0 1 2 3 3 4 4 4 5 5 6 7 7 8 9 9
-1 -1 -1 -1 -1 -1 -1 -1 -1 -1 -1 -0 -0 -0 -1 -1 -1 -2 -2 -2 -3 -3 -3 -2 -1 -1 0 1 2 3 4 4 5 5 5 6 6 7 8 9 9 10 11 11
-1 -1 -1 -1 -1 -1 -1 -1 -1 -1 -0 -0 -0 -0 -0 -1 -1 -1 -2 -2 -2 -2 -1 0 1 2 3 3 4 4 5 5 6 6 7 7 8 8 9 10 11 11 11 11
-1 -1 -0 -1 -1 -1 -1 -1 -1 -1 -0 -0 -0 -0 -0 -0 -0 -1 -1 -1 -1 -0 1 2 3 3 3 4 4 5 5 6 7 8 8 8 7 8 9 10 11 12 12 12
-0 -0 -0 -0 -1 -1 -1 -1 -0 -0 -0 -0 0 -0 -0 0 0 0 -1 -1 -0 1 2 3 3 3 4 4 5 5 6 7 8 8 8 7 7 9 10 11 11 12 12 12
-1 -0 -0 0 -0 -0 -0 -0 0 0 -0 -0 0 0 0 1 1 0 -0 -0 0 1 2 2 3 3 4 4 5 6 7 8 8 7 7 8 9 10 11 11 11 12 12 12
-0 -0 -0 -0 0 0 0 0 0 0 0 0 0 0 1 1 1 1 0 -0 0 1 1 2 2 3 4 4 5 6 7 7 7 6 7 9 10 11 11 11 11 12 12 12
0 0 0 0 0 0 0 0 0 1 1 1 1 1 2 2 2 1 1 -0 -0 0 1 1 2 3 4 4 6 7 7 7 6 6 8 10 10 10 10 10 11 11 11 11
0 1 0 0 -0 0 0 0 1 1 1 2 1 2 2 3 2 2 1 0 0 -0 0 1 2 3 3 4 6 7 7 6 6 7 9 10 10 10 10 10 11 11 11 11
1 1 1 0 -0 -0 0 1 1 1 2 2 2 2 2 3 3 2 2 1 0 0 0 0 1 2 3 4 6 7 7 6 6 8 10 10 10 10 10 10 11 11 11 11
1 1 1 0 0 0 1 1 2 2 2 2 2 2 2 2 3 3 2 2 1 0 0 0 1 2 3 4 6 7 6 6 7 9 10 10 10 10 10 10 11 11 11 11
1 1 1 1 1 2 2 2 2 2 2 2 2 2 2 2 3 3 3 2 1 1 0 1 1 2 3 4 6 6 6 7 8 9 10 10 10 10 10 11 11 11 11 11
1 1 2 2 2 2 3 3 3 3 2 2 2 2 2 3 3 3 3 2 2 1 1 1 1 2 3 4 6 6 7 7 9 9 10 10 10 11 11 11 11 11 11 11
1 2 2 3 3 3 3 3 3 3 3 3 3 3 3 3 3 3 2 2 2 1 1 1 1 2 2 4 6 7 7 8 9 10 10 11 11 12 12 12 12 11 11 10
2 3 3 3 3 3 3 4 4 4 4 4 4 4 4 3 3 2 2 2 2 2 1 1 1 2 2 4 6 7 8 9 10 10 11 12 12 12 12 12 12 11 10 10
3 3 3 3 3 3 4 5 5 4 4 5 5 4 4 3 3 2 2 2 2 2 1 1 1 2 3 5 7 8 9 9 10 11 12 13 13 13 12 12 12 11 10 10
3 3 3 3 3 3 4 5 5 4 4 5 5 4 4 3 3 2 2 2 2 2 1 2 2 4 6 8 8 9 9 10 12 12 13 13 13 13 12 12 11 11 10 10
3 3 3 3 3 4 5 5 5 4 4 4 4 4 3 3 2 2 2 2 2 2 2 3 4 6 8 9 9 9 10 12 13 13 13 13 13 12 12 11 11 10 10 10
3 3 3 3 3 4 5 5 5 5 5 4 4 4 3 3 2 2 2 2 2 3 4 5 7 8 9 10 10 11 12 13 13 14 14 13 13 12 11 11 11 10 9 9
3 3 3 4 4 4 5 5 5 5 4 4 3 3 2 2 2 1 2 2 4 5 6 7 8 9 10 11 12 13 13 13 14 14 14 13 12 11 11 11 10 9 8 8
3 4 4 4 4 4 4 4 4 4 3 3 3 2 2 2 2 2 2 3 5 7 8 9 9 10 11 12 13 13 13 14 14 14 13 12 12 11 11 10 9 9 8 7
3 3 3 3 3 4 4 4 3 3 3 3 2 2 2 2 2 2 3 4 5 7 9 10 10 10 11 12 12 13 14 14 14 14 13 12 11 11 10 9 9 8 8 7